Time,TemperatureF,DewpointF,PressureIn,WindDirection,WindDirectionDegrees,WindSpeedMPH,WindSpeedGustMPH,Humidity,HourlyPrecipIn,Conditions,Clouds,dailyrainin,SoftwareType,DateUTC
2014-08-29 00:02:00,60.3,59.0,29.96,NNE,22,0.0,0.0,98,0.00,,,0.00,Rainwise IP-100,2014-08-29 07:02:00,
2014-08-29 00:07:00,60.2,59.0,29.96,NNE,22,0.0,0.0,98,0.00,,,0.00,Rainwise IP-100,2014-08-29 07:07:00,
2014-08-29 00:12:00,59.9,59.0,29.96,NNE,22,0.0,0.0,98,0.00,,,0.00,Rainwise IP-100,2014-08-29 07:12:00,
2014-08-29 00:17:00,59.7,59.0,29.96,NNE,22,0.0,0.0,98,0.00,,,0.00,Rainwise IP-100,2014-08-29 07:17:00,
2014-08-29 00:22:00,59.5,59.0,29.96,NNE,22,0.0,0.0,98,0.00,,,0.00,Rainwise IP-100,2014-08-29 07:22:00,
2014-08-29 00:27:00,59.2,58.0,29.95,NNE,22,0.0,0.0,98,0.00,,,0.00,Rainwise IP-100,2014-08-29 07:27:00,
2014-08-29 00:32:00,58.7,58.0,29.96,NNE,22,0.0,0.0,98,0.00,,,0.00,Rainwise IP-100,2014-08-29 07:32:00,
2014-08-29 00:37:00,58.3,57.0,29.95,NNE,22,0.0,0.0,98,0.00,,,0.00,Rainwise IP-100,2014-08-29 07:37:00,
2014-08-29 00:42:00,58.2,57.0,29.96,NNE,22,0.0,0.0,98,0.00,,,0.00,Rainwise IP-100,2014-08-29 07:42:00,
2014-08-29 02:17:00,56.4,56.0,29.94,SSE,157,0.0,0.0,100,0.00,,,0.00,Rainwise IP-100,2014-08-29 09:17:00,
2014-08-29 02:22:00,56.1,56.0,29.93,SSE,157,0.0,0.0,100,0.00,,,0.00,Rainwise IP-100,2014-08-29 09:22:00,
2014-08-29 02:27:00,55.8,56.0,29.94,SSE,157,0.0,0.0,100,0.00,,,0.00,Rainwise IP-100,2014-08-29 09:27:00,
2014-08-29 02:32:00,55.8,56.0,29.93,SSE,157,0.0,0.0,100,0.00,,,0.00,Rainwise IP-100,2014-08-29 09:32:00,
2014-08-29 02:37:00,55.8,56.0,29.93,SSE,157,0.0,0.0,100,0.00,,,0.00,Rainwise IP-100,2014-08-29 09:37:00,
2014-08-29 02:42:00,55.9,56.0,29.93,SSE,157,0.0,0.0,100,0.00,,,0.00,Rainwise IP-100,2014-08-29 09:42:00,
2014-08-29 02:47:00,55.9,56.0,29.93,SSE,157,0.0,0.0,100,0.00,,,0.00,Rainwise IP-100,2014-08-29 09:47:00,
2014-08-29 02:52:00,56.0,56.0,29.93,SSE,157,0.0,0.0,100,0.00,,,0.00,Rainwise IP-100,2014-08-29 09:52:00,
2014-08-29 02:57:00,55.9,56.0,29.93,SSE,157,0.0,0.0,100,0.00,,,0.00,Rainwise IP-100,2014-08-29 09:57:00,
2014-08-29 03:02:00,55.8,56.0,29.93,SSE,157,0.0,0.0,100,0.00,,,0.00,Rainwise IP-100,2014-08-29 10:02:00,
2014-08-29 03:07:00,55.6,56.0,29.93,SSE,157,0.0,0.0,100,0.00,,,0.00,Rainwise IP-100,2014-08-29 10:07:00,
2014-08-29 03:12:00,55.3,55.0,29.93,SSE,157,0.0,0.0,100,0.00,,,0.00,Rainwise IP-100,2014-08-29 10:12:00,
2014-08-29 03:17:00,55.2,55.0,29.93,SSE,157,0.0,0.0,100,0.00,,,0.00,Rainwise IP-100,2014-08-29 10:17:00,
2014-08-29 03:22:00,55.2,55.0,29.93,SSE,157,0.0,0.0,100,0.00,,,0.00,Rainwise IP-100,2014-08-29 10:22:00,
2014-08-29 03:27:00,55.2,55.0,29.93,SSE,157,0.0,0.0,100,0.00,,,0.00,Rainwise IP-100,2014-08-29 10:27:00,
2014-08-29 03:32:00,55.2,55.0,29.93,SSE,157,0.0,0.0,100,0.00,,,0.00,Rainwise IP-100,2014-08-29 10:32:00,
2014-08-29 03:37:00,55.3,55.0,29.93,SSE,157,0.0,0.0,100,0.00,,,0.00,Rainwise IP-100,2014-08-29 10:37:00,
2014-08-29 03:42:00,55.0,55.0,29.93,SSE,157,0.0,0.0,100,0.00,,,0.00,Rainwise IP-100,2014-08-29 10:42:00,
2014-08-29 03:47:00,54.5,54.0,29.93,SSE,157,0.0,0.0,100,0.00,,,0.00,Rainwise IP-100,2014-08-29 10:47:00,
2014-08-29 03:52:00,54.3,54.0,29.94,SSE,157,0.0,0.0,100,0.00,,,0.00,Rainwise IP-100,2014-08-29 10:52:00,
2014-08-29 03:57:00,54.3,54.0,29.94,SSE,157,0.0,0.0,100,0.00,,,0.00,Rainwise IP-100,2014-08-29 10:57:00,
2014-08-29 04:02:00,54.4,54.0,29.93,SSE,157,1.4,1.4,100,0.00,,,0.00,Rainwise IP-100,2014-08-29 11:02:00,
2014-08-29 04:07:00,54.8,54.0,29.93,ESE,112,1.9,2.0,100,0.00,,,0.00,Rainwise IP-100,2014-08-29 11:07:00,
2014-08-29 04:12:00,55.3,55.0,29.93,ESE,112,0.0,2.0,100,0.00,,,0.00,Rainwise IP-100,2014-08-29 11:12:00,
2014-08-29 04:17:00,55.6,56.0,29.94,ESE,112,0.0,0.0,100,0.00,,,0.00,Rainwise IP-100,2014-08-29 11:17:00,
2014-08-29 04:22:00,55.9,56.0,29.94,ESE,112,0.0,0.0,100,0.00,,,0.00,Rainwise IP-100,2014-08-29 11:22:00,
2014-08-29 04:27:00,56.0,56.0,29.93,ESE,112,0.0,0.0,100,0.00,,,0.00,Rainwise IP-100,2014-08-29 11:27:00,
2014-08-29 04:32:00,56.1,56.0,29.93,ESE,112,0.0,0.0,100,0.00,,,0.00,Rainwise IP-100,2014-08-29 11:32:00,
2014-08-29 04:37:00,56.0,56.0,29.93,ESE,112,0.0,0.0,100,0.00,,,0.00,Rainwise IP-100,2014-08-29 11:37:00,
2014-08-29 04:42:00,56.0,56.0,29.93,ESE,112,0.0,0.0,100,0.00,,,0.00,Rainwise IP-100,2014-08-29 11:42:00,
2014-08-29 04:47:00,56.2,56.0,29.93,ESE,112,0.0,0.0,100,0.00,,,0.00,Rainwise IP-100,2014-08-29 11:47:00,
2014-08-29 04:52:00,56.3,56.0,29.93,ESE,112,0.0,0.0,100,0.00,,,0.00,Rainwise IP-100,2014-08-29 11:52:00,
2014-08-29 04:57:00,56.3,56.0,29.93,ESE,112,0.0,0.0,100,0.00,,,0.00,Rainwise IP-100,2014-08-29 11:57:00,
2014-08-29 05:02:00,56.5,56.0,29.93,ESE,112,0.0,0.0,100,0.00,,,0.00,Rainwise IP-100,2014-08-29 12:02:00,
2014-08-29 05:07:00,56.7,56.0,29.93,ESE,112,0.0,0.0,100,0.00,,,0.00,Rainwise IP-100,2014-08-29 12:07:00,
2014-08-29 05:13:00,56.8,56.0,29.93,ESE,112,0.0,0.0,100,0.00,,,0.00,Rainwise IP-100,2014-08-29 12:13:00,
2014-08-29 05:18:00,56.9,57.0,29.93,ESE,112,0.0,0.0,100,0.00,,,0.00,Rainwise IP-100,2014-08-29 12:18:00,
2014-08-29 05:23:00,57.0,57.0,29.93,ESE,112,0.0,0.0,100,0.00,,,0.00,Rainwise IP-100,2014-08-29 12:23:00,
2014-08-29 05:28:00,57.2,57.0,29.93,ESE,112,0.0,0.0,100,0.00,,,0.00,Rainwise IP-100,2014-08-29 12:28:00,
2014-08-29 05:33:00,57.4,57.0,29.92,ESE,112,0.0,0.0,100,0.00,,,0.00,Rainwise IP-100,2014-08-29 12:33:00,
2014-08-29 05:38:00,57.4,57.0,29.92,ESE,112,0.0,0.0,100,0.00,,,0.00,Rainwise IP-100,2014-08-29 12:38:00,
2014-08-29 05:43:00,57.6,57.0,29.93,SW,225,0.0,0.0,100,0.00,,,0.00,Rainwise IP-100,2014-08-29 12:43:00,
2014-08-29 05:48:00,57.8,57.0,29.93,SW,225,0.0,1.0,100,0.00,,,0.00,Rainwise IP-100,2014-08-29 12:48:00,
2014-08-29 05:53:00,57.9,58.0,29.92,SW,225,0.0,0.0,100,0.00,,,0.00,Rainwise IP-100,2014-08-29 12:53:00,
2014-08-29 05:58:00,57.9,58.0,29.93,SW,225,0.0,0.0,100,0.00,,,0.00,Rainwise IP-100,2014-08-29 12:58:00,
2014-08-29 06:03:00,57.9,58.0,29.93,SW,225,0.0,0.0,100,0.00,,,0.00,Rainwise IP-100,2014-08-29 13:03:00,
2014-08-29 06:08:00,58.0,58.0,29.93,SW,225,0.0,0.0,100,0.00,,,0.00,Rainwise IP-100,2014-08-29 13:08:00,
2014-08-29 06:13:00,58.0,58.0,29.92,SW,225,0.0,0.0,100,0.00,,,0.00,Rainwise IP-100,2014-08-29 13:13:00,
2014-08-29 06:18:00,58.0,58.0,29.93,SW,225,0.0,0.0,100,0.00,,,0.00,Rainwise IP-100,2014-08-29 13:18:00,
2014-08-29 06:23:00,58.0,58.0,29.93,SW,225,0.0,0.0,100,0.00,,,0.00,Rainwise IP-100,2014-08-29 13:23:00,
2014-08-29 06:28:00,58.0,58.0,29.93,SW,225,0.0,1.0,100,0.00,,,0.00,Rainwise IP-100,2014-08-29 13:28:00,
2014-08-29 06:33:00,58.1,58.0,29.93,SW,225,0.0,0.0,100,0.00,,,0.00,Rainwise IP-100,2014-08-29 13:33:00,
2014-08-29 06:38:00,58.2,58.0,29.93,SW,225,0.0,0.0,100,0.00,,,0.00,Rainwise IP-100,2014-08-29 13:38:00,
2014-08-29 06:43:00,58.2,58.0,29.93,SW,225,0.0,0.0,100,0.00,,,0.00,Rainwise IP-100,2014-08-29 13:43:00,
2014-08-29 06:48:00,58.2,58.0,29.93,SW,225,0.0,0.0,100,0.00,,,0.00,Rainwise IP-100,2014-08-29 13:48:00,
2014-08-29 06:53:00,58.3,58.0,29.93,SW,225,0.0,0.0,100,0.00,,,0.00,Rainwise IP-100,2014-08-29 13:53:00,
2014-08-29 06:58:00,58.3,58.0,29.93,SW,225,0.0,0.0,100,0.00,,,0.00,Rainwise IP-100,2014-08-29 13:58:00,
2014-08-29 07:03:00,58.3,58.0,29.93,SW,225,0.0,0.0,100,0.00,,,0.00,Rainwise IP-100,2014-08-29 14:03:00,
2014-08-29 07:08:00,58.5,59.0,29.93,SW,225,0.0,1.0,100,0.00,,,0.00,Rainwise IP-100,2014-08-29 14:08:00,
2014-08-29 07:13:00,58.7,59.0,29.93,SW,225,0.0,0.0,100,0.00,,,0.00,Rainwise IP-100,2014-08-29 14:13:00,
2014-08-29 07:18:00,58.7,59.0,29.93,SW,225,0.0,0.0,100,0.00,,,0.00,Rainwise IP-100,2014-08-29 14:18:00,
2014-08-29 07:23:00,58.9,59.0,29.93,SW,225,0.0,0.0,100,0.00,,,0.00,Rainwise IP-100,2014-08-29 14:23:00,
2014-08-29 07:28:00,59.0,59.0,29.93,SW,225,0.0,0.0,100,0.00,,,0.00,Rainwise IP-100,2014-08-29 14:28:00,
2014-08-29 07:33:00,59.1,59.0,29.93,SW,225,0.0,0.0,100,0.00,,,0.00,Rainwise IP-100,2014-08-29 14:33:00,
2014-08-29 07:38:00,59.3,59.0,29.93,SW,225,0.0,0.0,100,0.00,,,0.00,Rainwise IP-100,2014-08-29 14:38:00,
2014-08-29 07:43:00,59.4,59.0,29.93,SW,225,0.0,0.0,100,0.00,,,0.00,Rainwise IP-100,2014-08-29 14:43:00,
2014-08-29 07:48:00,59.5,59.0,29.93,SW,225,0.0,0.0,100,0.00,,,0.00,Rainwise IP-100,2014-08-29 14:48:00,
2014-08-29 07:53:00,59.6,59.0,29.93,SW,225,0.0,0.0,100,0.00,,,0.00,Rainwise IP-100,2014-08-29 14:53:00,
2014-08-29 07:58:00,59.8,59.0,29.93,SW,225,0.0,1.0,100,0.00,,,0.00,Rainwise IP-100,2014-08-29 14:58:00,
2014-08-29 08:03:00,59.9,60.0,29.93,SW,225,0.0,0.0,100,0.00,,,0.00,Rainwise IP-100,2014-08-29 15:03:00,
2014-08-29 08:07:00,60.0,60.0,29.93,SW,225,0.0,0.0,100,0.00,,,0.00,Rainwise IP-100,2014-08-29 15:07:00,
2014-08-29 08:12:00,60.1,60.0,29.93,SW,225,0.0,0.0,100,0.00,,,0.00,Rainwise IP-100,2014-08-29 15:12:00,
2014-08-29 08:18:00,60.2,60.0,29.93,SW,225,0.0,0.0,100,0.00,,,0.00,Rainwise IP-100,2014-08-29 15:18:00,
2014-08-29 08:23:00,60.5,60.0,29.93,SW,225,0.0,0.0,100,0.00,,,0.00,Rainwise IP-100,2014-08-29 15:23:00,
2014-08-29 08:28:00,60.8,60.0,29.93,NNW,337,0.0,2.0,100,0.00,,,0.00,Rainwise IP-100,2014-08-29 15:28:00,
2014-08-29 08:33:00,60.9,61.0,29.93,NNW,337,0.0,1.0,100,0.00,,,0.00,Rainwise IP-100,2014-08-29 15:33:00,
2014-08-29 08:38:00,61.1,61.0,29.93,NNW,337,3.7,3.7,100,0.00,,,0.00,Rainwise IP-100,2014-08-29 15:38:00,
2014-08-29 08:43:00,61.4,61.0,29.93,WNW,292,2.6,4.0,100,0.00,,,0.00,Rainwise IP-100,2014-08-29 15:43:00,
2014-08-29 08:48:00,61.7,61.0,29.93,WNW,292,1.4,4.0,100,0.00,,,0.00,Rainwise IP-100,2014-08-29 15:48:00,
2014-08-29 08:53:00,61.9,62.0,29.93,North,360,2.6,3.0,100,0.00,,,0.00,Rainwise IP-100,2014-08-29 15:53:00,
2014-08-29 08:58:00,62.3,62.0,29.93,NNW,337,0.0,3.0,100,0.00,,,0.00,Rainwise IP-100,2014-08-29 15:58:00,
2014-08-29 09:03:00,62.6,62.0,29.93,NNW,337,1.9,2.0,100,0.00,,,0.00,Rainwise IP-100,2014-08-29 16:03:00,
2014-08-29 09:08:00,62.8,62.0,29.93,NNW,337,1.4,3.0,99,0.00,,,0.00,Rainwise IP-100,2014-08-29 16:08:00,
2014-08-29 09:13:00,63.2,62.0,29.93,NNE,22,0.0,2.0,98,0.00,,,0.00,Rainwise IP-100,2014-08-29 16:13:00,
2014-08-29 09:18:00,63.7,63.0,29.93,NNW,337,2.8,4.0,98,0.00,,,0.00,Rainwise IP-100,2014-08-29 16:18:00,
2014-08-29 09:23:00,63.9,63.0,29.93,WNW,292,0.0,3.0,97,0.00,,,0.00,Rainwise IP-100,2014-08-29 16:23:00,
2014-08-29 09:28:00,64.0,63.0,29.93,NNW,337,0.0,3.0,96,0.00,,,0.00,Rainwise IP-100,2014-08-29 16:28:00,
2014-08-29 09:33:00,64.2,63.0,29.93,NNW,337,3.7,4.0,96,0.00,,,0.00,Rainwise IP-100,2014-08-29 16:33:00,
2014-08-29 09:38:00,64.4,63.0,29.93,NW,315,1.2,4.0,95,0.00,,,0.00,Rainwise IP-100,2014-08-29 16:38:00,
2014-08-29 09:43:00,64.6,62.0,29.93,NW,315,1.2,3.0,94,0.00,,,0.00,Rainwise IP-100,2014-08-29 16:43:00,
2014-08-29 09:48:00,64.8,62.0,29.93,NNW,337,3.3,5.0,93,0.00,,,0.00,Rainwise IP-100,2014-08-29 16:48:00,
2014-08-29 09:53:00,65.2,62.0,29.93,WNW,292,3.7,4.0,92,0.00,,,0.00,Rainwise IP-100,2014-08-29 16:53:00,
2014-08-29 09:58:00,65.3,62.0,29.93,WNW,292,2.8,4.0,90,0.00,,,0.00,Rainwise IP-100,2014-08-29 16:58:00,
2014-08-29 10:03:00,65.3,61.0,29.93,NNW,337,3.3,4.0,89,0.00,,,0.00,Rainwise IP-100,2014-08-29 17:03:00,
2014-08-29 10:08:00,65.6,61.0,29.93,North,360,2.1,4.0,88,0.00,,,0.00,Rainwise IP-100,2014-08-29 17:08:00,
2014-08-29 10:13:00,65.9,62.0,29.93,NW,315,3.5,5.0,87,0.00,,,0.00,Rainwise IP-100,2014-08-29 17:13:00,
2014-08-29 10:18:00,66.1,62.0,29.93,NNE,22,1.6,4.0,87,0.00,,,0.00,Rainwise IP-100,2014-08-29 17:18:00,
2014-08-29 10:23:00,66.4,62.0,29.93,WNW,292,0.0,5.0,86,0.00,,,0.00,Rainwise IP-100,2014-08-29 17:23:00,
2014-08-29 10:28:00,66.5,62.0,29.92,WNW,292,2.6,4.0,85,0.00,,,0.00,Rainwise IP-100,2014-08-29 17:28:00,
2014-08-29 10:33:00,66.6,62.0,29.93,NW,315,1.6,4.0,85,0.00,,,0.00,Rainwise IP-100,2014-08-29 17:33:00,
2014-08-29 10:38:00,67.1,62.0,29.93,ENE,67,3.5,4.0,84,0.00,,,0.00,Rainwise IP-100,2014-08-29 17:38:00,
2014-08-29 10:43:00,67.6,62.0,29.92,NW,315,2.3,4.0,83,0.00,,,0.00,Rainwise IP-100,2014-08-29 17:43:00,
2014-08-29 10:48:00,68.3,62.0,29.92,NNW,337,2.3,4.0,81,0.00,,,0.00,Rainwise IP-100,2014-08-29 17:48:00,
2014-08-29 10:53:00,68.8,61.0,29.92,NNW,337,2.6,5.0,79,0.00,,,0.00,Rainwise IP-100,2014-08-29 17:53:00,
2014-08-29 10:58:00,68.7,61.0,29.93,NNW,337,4.9,6.0,78,0.00,,,0.00,Rainwise IP-100,2014-08-29 17:58:00,
2014-08-29 11:03:00,68.4,61.0,29.93,NNW,337,2.3,6.0,78,0.00,,,0.00,Rainwise IP-100,2014-08-29 18:03:00,
2014-08-29 11:08:00,68.4,61.0,29.93,WNW,292,1.6,5.0,78,0.00,,,0.00,Rainwise IP-100,2014-08-29 18:08:00,
2014-08-29 11:13:00,68.3,60.0,29.93,NNW,337,2.3,3.0,77,0.00,,,0.00,Rainwise IP-100,2014-08-29 18:13:00,
2014-08-29 11:18:00,68.2,60.0,29.93,NNW,337,1.9,4.0,77,0.00,,,0.00,Rainwise IP-100,2014-08-29 18:18:00,
2014-08-29 11:23:00,68.7,60.0,29.93,NW,315,3.0,4.0,76,0.00,,,0.00,Rainwise IP-100,2014-08-29 18:23:00,
2014-08-29 11:28:00,69.3,60.0,29.93,SSW,202,1.4,3.0,74,0.00,,,0.00,Rainwise IP-100,2014-08-29 18:28:00,
2014-08-29 11:33:00,69.6,60.0,29.92,NNW,337,2.6,6.0,71,0.00,,,0.00,Rainwise IP-100,2014-08-29 18:33:00,
2014-08-29 11:38:00,69.9,60.0,29.93,NNW,337,2.8,7.0,70,0.00,,,0.00,Rainwise IP-100,2014-08-29 18:38:00,
2014-08-29 11:43:00,70.4,60.0,29.92,WNW,292,8.2,8.2,69,0.00,,,0.00,Rainwise IP-100,2014-08-29 18:43:00,
2014-08-29 11:48:00,70.1,59.0,29.93,WNW,292,5.4,11.0,68,0.00,,,0.00,Rainwise IP-100,2014-08-29 18:48:00,
2014-08-29 11:53:00,69.8,58.0,29.92,West,270,6.8,11.0,67,0.00,,,0.00,Rainwise IP-100,2014-08-29 18:53:00,
2014-08-29 11:58:00,69.8,58.0,29.93,WNW,292,3.5,10.0,67,0.00,,,0.00,Rainwise IP-100,2014-08-29 18:58:00,
2014-08-29 12:03:00,69.6,57.0,29.93,West,270,5.8,10.0,65,0.00,,,0.00,Rainwise IP-100,2014-08-29 19:03:00,
2014-08-29 12:08:00,69.5,57.0,29.93,WNW,292,2.8,11.0,64,0.00,,,0.00,Rainwise IP-100,2014-08-29 19:08:00,
2014-08-29 12:13:00,69.1,56.0,29.93,West,270,6.5,11.0,63,0.00,,,0.00,Rainwise IP-100,2014-08-29 19:13:00,
2014-08-29 12:18:00,69.1,55.0,29.93,WSW,247,3.3,10.0,62,0.00,,,0.00,Rainwise IP-100,2014-08-29 19:18:00,
2014-08-29 12:23:00,69.5,56.0,29.93,WSW,247,4.4,8.0,62,0.00,,,0.00,Rainwise IP-100,2014-08-29 19:23:00,
2014-08-29 12:28:00,69.7,56.0,29.93,West,270,7.7,7.7,62,0.00,,,0.00,Rainwise IP-100,2014-08-29 19:28:00,
2014-08-29 12:33:00,69.4,55.0,29.93,WSW,247,2.8,7.0,61,0.00,,,0.00,Rainwise IP-100,2014-08-29 19:33:00,
2014-08-29 12:38:00,68.9,55.0,29.93,West,270,1.6,7.0,62,0.00,,,0.00,Rainwise IP-100,2014-08-29 19:38:00,
2014-08-29 12:43:00,68.6,54.0,29.93,NW,315,6.1,9.0,62,0.00,,,0.00,Rainwise IP-100,2014-08-29 19:43:00,
2014-08-29 12:48:00,68.3,54.0,29.93,WSW,247,4.7,10.0,63,0.00,,,0.00,Rainwise IP-100,2014-08-29 19:48:00,
2014-08-29 12:53:00,68.0,54.0,29.93,WNW,292,5.1,9.0,63,0.00,,,0.00,Rainwise IP-100,2014-08-29 19:53:00,
2014-08-29 12:58:00,67.7,54.0,29.93,West,270,6.5,11.0,63,0.00,,,0.00,Rainwise IP-100,2014-08-29 19:58:00,
2014-08-29 13:03:00,67.4,55.0,29.94,WNW,292,2.8,10.0,64,0.00,,,0.00,Rainwise IP-100,2014-08-29 20:03:00,
2014-08-29 13:08:00,67.1,55.0,29.94,WNW,292,4.0,10.0,65,0.00,,,0.00,Rainwise IP-100,2014-08-29 20:08:00,
2014-08-29 13:13:00,66.8,55.0,29.94,West,270,4.4,8.0,66,0.00,,,0.00,Rainwise IP-100,2014-08-29 20:13:00,
2014-08-29 13:18:00,66.7,55.0,29.94,WSW,247,4.9,9.0,66,0.00,,,0.00,Rainwise IP-100,2014-08-29 20:18:00,
2014-08-29 13:23:00,66.6,55.0,29.95,West,270,2.1,6.0,67,0.00,,,0.00,Rainwise IP-100,2014-08-29 20:23:00,
2014-08-29 13:28:00,66.6,55.0,29.95,West,270,2.3,5.0,67,0.00,,,0.00,Rainwise IP-100,2014-08-29 20:28:00,
2014-08-29 13:33:00,66.7,55.0,29.95,WNW,292,4.4,5.0,67,0.00,,,0.00,Rainwise IP-100,2014-08-29 20:33:00,
2014-08-29 13:38:00,67.0,56.0,29.95,WNW,292,2.6,4.0,68,0.00,,,0.00,Rainwise IP-100,2014-08-29 20:38:00,
2014-08-29 13:43:00,67.3,56.0,29.95,NW,315,3.7,4.0,68,0.00,,,0.00,Rainwise IP-100,2014-08-29 20:43:00,
2014-08-29 13:48:00,67.6,56.0,29.95,WNW,292,3.7,5.0,67,0.00,,,0.00,Rainwise IP-100,2014-08-29 20:48:00,
2014-08-29 13:53:00,68.0,56.0,29.95,NNW,337,3.0,7.0,66,0.00,,,0.00,Rainwise IP-100,2014-08-29 20:53:00,
2014-08-29 13:58:00,67.9,56.0,29.94,NW,315,3.3,8.0,65,0.00,,,0.00,Rainwise IP-100,2014-08-29 20:58:00,
2014-08-29 14:03:00,68.1,55.0,29.94,NNE,22,3.3,6.0,64,0.00,,,0.00,Rainwise IP-100,2014-08-29 21:03:00,
2014-08-29 14:08:00,68.8,55.0,29.94,NE,45,0.0,4.0,63,0.00,,,0.00,Rainwise IP-100,2014-08-29 21:08:00,
2014-08-29 14:13:00,69.5,56.0,29.94,NNW,337,2.1,4.0,62,0.00,,,0.00,Rainwise IP-100,2014-08-29 21:13:00,
2014-08-29 14:18:00,70.1,56.0,29.93,WNW,292,2.1,6.0,61,0.00,,,0.00,Rainwise IP-100,2014-08-29 21:18:00,
2014-08-29 14:23:00,70.1,56.0,29.94,North,360,1.4,5.0,61,0.00,,,0.00,Rainwise IP-100,2014-08-29 21:23:00,
2014-08-29 14:28:00,70.0,56.0,29.93,NNW,337,3.3,5.0,61,0.00,,,0.00,Rainwise IP-100,2014-08-29 21:28:00,
2014-08-29 14:33:00,70.3,56.0,29.93,WNW,292,0.0,5.0,62,0.00,,,0.00,Rainwise IP-100,2014-08-29 21:33:00,
2014-08-29 14:38:00,70.5,57.0,29.93,NNW,337,3.5,5.0,62,0.00,,,0.00,Rainwise IP-100,2014-08-29 21:38:00,
2014-08-29 14:43:00,70.6,57.0,29.93,WNW,292,4.2,6.0,62,0.00,,,0.00,Rainwise IP-100,2014-08-29 21:43:00,
2014-08-29 14:48:00,71.0,56.0,29.93,South,180,1.9,6.0,61,0.00,,,0.00,Rainwise IP-100,2014-08-29 21:48:00,
2014-08-29 14:53:00,70.9,56.0,29.93,ENE,67,4.4,6.0,61,0.00,,,0.00,Rainwise IP-100,2014-08-29 21:53:00,
2014-08-29 14:58:00,70.3,56.0,29.93,NNE,22,0.0,5.0,61,0.00,,,0.00,Rainwise IP-100,2014-08-29 21:58:00,
2014-08-29 15:03:00,69.9,56.0,29.93,NNE,22,0.0,4.0,61,0.00,,,0.00,Rainwise IP-100,2014-08-29 22:03:00,
2014-08-29 15:08:00,70.2,56.0,29.92,SSE,157,0.0,2.0,61,0.00,,,0.00,Rainwise IP-100,2014-08-29 22:08:00,
2014-08-29 15:13:00,70.4,56.0,29.93,ESE,112,1.9,4.0,61,0.00,,,0.00,Rainwise IP-100,2014-08-29 22:13:00,
2014-08-29 15:18:00,70.4,56.0,29.92,NNE,22,1.6,6.0,61,0.00,,,0.00,Rainwise IP-100,2014-08-29 22:18:00,
2014-08-29 15:23:00,70.4,56.0,29.93,ESE,112,2.8,7.0,61,0.00,,,0.00,Rainwise IP-100,2014-08-29 22:23:00,
2014-08-29 15:28:00,70.4,56.0,29.92,SSW,202,2.1,11.0,61,0.00,,,0.00,Rainwise IP-100,2014-08-29 22:28:00,
2014-08-29 15:33:00,70.2,56.0,29.92,WNW,292,3.5,5.0,61,0.00,,,0.00,Rainwise IP-100,2014-08-29 22:33:00,
2014-08-29 15:38:00,70.3,55.0,29.92,ESE,112,0.0,4.0,60,0.00,,,0.00,Rainwise IP-100,2014-08-29 22:38:00,
2014-08-29 15:43:00,70.6,55.0,29.92,NNW,337,2.8,5.0,59,0.00,,,0.00,Rainwise IP-100,2014-08-29 22:43:00,
2014-08-29 15:48:00,71.1,56.0,29.91,NNW,337,5.4,7.0,59,0.00,,,0.00,Rainwise IP-100,2014-08-29 22:48:00,
2014-08-29 15:53:00,71.6,56.0,29.91,NW,315,4.4,8.0,58,0.00,,,0.00,Rainwise IP-100,2014-08-29 22:53:00,
2014-08-29 15:58:00,71.4,56.0,29.91,NNW,337,7.0,8.0,58,0.00,,,0.00,Rainwise IP-100,2014-08-29 22:58:00,
2014-08-29 16:03:00,71.1,55.0,29.91,WNW,292,2.3,7.0,58,0.00,,,0.00,Rainwise IP-100,2014-08-29 23:03:00,
2014-08-29 16:08:00,70.8,55.0,29.91,West,270,8.2,9.0,59,0.00,,,0.00,Rainwise IP-100,2014-08-29 23:08:00,
2014-08-29 16:13:00,70.6,55.0,29.90,WSW,247,0.0,8.0,59,0.00,,,0.00,Rainwise IP-100,2014-08-29 23:13:00,
2014-08-29 16:18:00,71.1,56.0,29.90,SSW,202,2.6,4.0,59,0.00,,,0.00,Rainwise IP-100,2014-08-29 23:18:00,
2014-08-29 16:23:00,71.9,56.0,29.90,ESE,112,3.7,5.0,58,0.00,,,0.00,Rainwise IP-100,2014-08-29 23:23:00,
2014-08-29 16:28:00,72.1,56.0,29.90,West,270,3.3,3.3,57,0.00,,,0.00,Rainwise IP-100,2014-08-29 23:28:00,
2014-08-29 16:33:00,72.3,56.0,29.90,SSE,157,4.2,7.0,56,0.00,,,0.00,Rainwise IP-100,2014-08-29 23:33:00,
2014-08-29 16:38:00,72.7,56.0,29.90,West,270,2.3,5.0,55,0.00,,,0.00,Rainwise IP-100,2014-08-29 23:38:00,
2014-08-29 16:43:00,73.1,56.0,29.90,SSW,202,2.1,3.0,55,0.00,,,0.00,Rainwise IP-100,2014-08-29 23:43:00,
2014-08-29 16:48:00,73.4,56.0,29.90,ESE,112,4.7,6.0,55,0.00,,,0.00,Rainwise IP-100,2014-08-29 23:48:00,
2014-08-29 16:53:00,72.7,55.0,29.90,ESE,112,1.9,4.0,54,0.00,,,0.00,Rainwise IP-100,2014-08-29 23:53:00,
2014-08-29 16:58:00,71.9,54.0,29.90,SSE,157,0.0,2.0,55,0.00,,,0.00,Rainwise IP-100,2014-08-29 23:58:00,
2014-08-29 17:03:00,71.4,55.0,29.90,West,270,2.1,3.0,57,0.00,,,0.00,Rainwise IP-100,2014-08-30 00:03:00,
2014-08-29 17:08:00,70.8,54.0,29.90,SSW,202,1.9,4.0,57,0.00,,,0.00,Rainwise IP-100,2014-08-30 00:08:00,
2014-08-29 17:13:00,70.7,54.0,29.90,NNW,337,3.0,4.0,57,0.00,,,0.00,Rainwise IP-100,2014-08-30 00:13:00,
2014-08-29 17:18:00,70.9,55.0,29.90,NNW,337,0.0,3.0,58,0.00,,,0.00,Rainwise IP-100,2014-08-30 00:18:00,
2014-08-29 17:23:00,70.9,56.0,29.90,NNW,337,0.0,0.0,60,0.00,,,0.00,Rainwise IP-100,2014-08-30 00:23:00,
2014-08-29 17:28:00,71.0,56.0,29.90,NNW,337,0.0,1.0,60,0.00,,,0.00,Rainwise IP-100,2014-08-30 00:28:00,
2014-08-29 17:33:00,70.8,56.0,29.90,NNW,337,0.0,0.0,60,0.00,,,0.00,Rainwise IP-100,2014-08-30 00:33:00,
2014-08-29 17:38:00,70.6,56.0,29.89,NNW,337,0.0,0.0,61,0.00,,,0.00,Rainwise IP-100,2014-08-30 00:38:00,
2014-08-29 17:43:00,70.5,56.0,29.89,NNW,337,0.0,1.0,61,0.00,,,0.00,Rainwise IP-100,2014-08-30 00:43:00,
2014-08-29 17:48:00,70.7,56.0,29.89,NNE,22,2.1,4.0,60,0.00,,,0.00,Rainwise IP-100,2014-08-30 00:48:00,
2014-08-29 17:53:00,70.7,56.0,29.89,ENE,67,1.6,3.0,60,0.00,,,0.00,Rainwise IP-100,2014-08-30 00:53:00,
2014-08-29 17:58:00,70.6,56.0,29.89,ESE,112,2.1,2.1,60,0.00,,,0.00,Rainwise IP-100,2014-08-30 00:58:00,
2014-08-29 18:03:00,70.5,56.0,29.89,ESE,112,0.0,3.0,60,0.00,,,0.00,Rainwise IP-100,2014-08-30 01:03:00,
2014-08-29 18:08:00,70.5,55.0,29.89,ESE,112,0.0,0.0,59,0.00,,,0.00,Rainwise IP-100,2014-08-30 01:08:00,
2014-08-29 18:13:00,70.8,56.0,29.89,ESE,112,0.0,1.0,61,0.00,,,0.00,Rainwise IP-100,2014-08-30 01:13:00,
2014-08-29 18:18:00,71.0,56.0,29.88,ESE,112,0.0,1.0,61,0.00,,,0.00,Rainwise IP-100,2014-08-30 01:18:00,
2014-08-29 18:23:00,70.9,57.0,29.89,ESE,112,0.0,0.0,62,0.00,,,0.00,Rainwise IP-100,2014-08-30 01:23:00,
2014-08-29 18:28:00,70.3,57.0,29.89,ESE,112,0.0,0.0,64,0.00,,,0.00,Rainwise IP-100,2014-08-30 01:28:00,
2014-08-29 18:33:00,70.2,57.0,29.89,SSE,157,1.9,2.0,65,0.00,,,0.00,Rainwise IP-100,2014-08-30 01:33:00,
2014-08-29 18:38:00,70.5,58.0,29.89,WSW,247,0.0,2.0,65,0.00,,,0.00,Rainwise IP-100,2014-08-30 01:38:00,
2014-08-29 18:43:00,70.8,58.0,29.88,WSW,247,0.0,1.0,65,0.00,,,0.00,Rainwise IP-100,2014-08-30 01:43:00,
2014-08-29 18:48:00,71.3,58.0,29.88,WSW,247,0.0,1.0,64,0.00,,,0.00,Rainwise IP-100,2014-08-30 01:48:00,
2014-08-29 18:53:00,71.3,58.0,29.88,SW,225,1.6,4.0,63,0.00,,,0.00,Rainwise IP-100,2014-08-30 01:53:00,
2014-08-29 18:58:00,70.7,56.0,29.89,West,270,6.5,7.0,61,0.00,,,0.00,Rainwise IP-100,2014-08-30 01:58:00,
2014-08-29 19:03:00,69.4,54.0,29.89,West,270,2.1,6.0,60,0.00,,,0.00,Rainwise IP-100,2014-08-30 02:03:00,
2014-08-29 19:08:00,68.8,54.0,29.88,WSW,247,0.0,6.0,60,0.00,,,0.00,Rainwise IP-100,2014-08-30 02:08:00,
2014-08-29 19:13:00,68.4,54.0,29.89,WSW,247,0.0,1.0,62,0.00,,,0.00,Rainwise IP-100,2014-08-30 02:13:00,
2014-08-29 19:18:00,68.1,56.0,29.89,WSW,247,0.0,0.0,65,0.00,,,0.00,Rainwise IP-100,2014-08-30 02:18:00,
2014-08-29 19:23:00,67.5,56.0,29.89,WSW,247,0.0,0.0,67,0.00,,,0.00,Rainwise IP-100,2014-08-30 02:23:00,
2014-08-29 19:28:00,66.3,56.0,29.89,WSW,247,0.0,0.0,69,0.00,,,0.00,Rainwise IP-100,2014-08-30 02:28:00,
2014-08-29 19:33:00,65.5,56.0,29.89,SW,225,0.0,3.0,71,0.00,,,0.00,Rainwise IP-100,2014-08-30 02:33:00,
2014-08-29 19:38:00,65.2,56.0,29.89,SW,225,0.0,2.0,72,0.00,,,0.00,Rainwise IP-100,2014-08-30 02:38:00,
2014-08-29 19:43:00,65.3,56.0,29.89,NNW,337,0.0,3.0,73,0.00,,,0.00,Rainwise IP-100,2014-08-30 02:43:00,
2014-08-29 19:48:00,65.2,56.0,29.89,NNW,337,0.0,0.0,74,0.00,,,0.00,Rainwise IP-100,2014-08-30 02:48:00,
2014-08-29 19:53:00,64.8,56.0,29.89,NNW,337,0.0,1.0,76,0.00,,,0.00,Rainwise IP-100,2014-08-30 02:53:00,
2014-08-29 19:58:00,64.3,56.0,29.89,NNW,337,0.0,1.0,77,0.00,,,0.00,Rainwise IP-100,2014-08-30 02:58:00,
2014-08-29 20:03:00,64.0,56.0,29.89,NNW,337,0.0,0.0,77,0.00,,,0.00,Rainwise IP-100,2014-08-30 03:03:00,
2014-08-29 20:08:00,63.9,57.0,29.89,NNW,337,0.0,0.0,78,0.00,,,0.00,Rainwise IP-100,2014-08-30 03:08:00,